Regional Weather Roundup
Issued by NWS

Home | Current Version | Previous Version | Text Only | Print | Product List | Glossary Off
Versions: 1 2 3 4 5 6 7 8 9 10 11 12 13 14 15 16 17 18 19 20 21 22 23 24 25 26 27 28 29 30 31 32 33 34 35 36 37 38 39 40 41 42 43 44 45 46 47 48 49 50

000
ASUS43 KLOT 281506
RWRIL

ILLINOIS REGIONAL WEATHER ROUNDUP
NATIONAL WEATHER SERVICE CHICAGO/ROMEOVILLE IL
900 AM CST WED JAN 28 2015

NOTE: "FAIR" INDICATES FEW OR NO CLOUDS BELOW 12,000 FEET WITH NO
SIGNIFICANT WEATHER AND/OR OBSTRUCTIONS TO VISIBILITY.

* THESE STATIONS ARE NOT UNDER NWS QUALITY CONTROL. THEY ALSO MAY NOT
  REPORT WEATHER SUCH AS PRECIPITATION OR FOG.

ILZ001-002-007-009-015-016-024-281600-
NORTHWEST ILLINOIS

CITY           SKY/WX    TMP DP  RH WIND       PRES   REMARKS
MOLINE         MOSUNNY   26  20  77 SE13      30.18F WCI  15
STERLING*      MOSUNNY   27  18  69 S6        30.22F WCI  20
SAVANNA*       CLOUDY    30  25  83 SE10      30.20F WCI  21
$$

ILZ003-004-008-010-011-017-018-281600-
NORTH CENTRAL ILLINOIS

CITY           SKY/WX    TMP DP  RH WIND       PRES   REMARKS
ROCKFORD       PTSUNNY   25  17  72 SE12      30.25S WCI  14
FREEPORT*      CLOUDY    26  21  84 S12       30.23S WCI  15
ROCHELLE*      SUNNY     23  18  83 SE12      30.24S WCI  11
DE KALB*       SUNNY     22  18  83 S14       30.24S WCI   9
PERU*          SUNNY     26  19  75 SE13      30.25S WCI  15
$$

ILZ005-006-012>014-019>023-281600-
NORTHEAST ILLINOIS

CITY           SKY/WX    TMP DP  RH WIND       PRES   REMARKS
CHICAGO-OHARE  PTSUNNY   24  16  71 S10       30.26F WCI  14
CHICAGO-MIDWAY PTSUNNY   26  16  65 S9        30.27F WCI  17
AURORA         SUNNY     25  18  74 SE9       30.25F WCI  15
LANSING*       MOSUNNY   25  17  70 S9        30.29F WCI  15
JOLIET*        SUNNY     24  18  76 SE8       30.27F WCI  15
WAUKEGAN       MOSUNNY   26  17  68 S7        30.25F WCI  18
DUPAGE AIRPORT SUNNY     24  17  74 S8        30.25F WCI  15
KANKAKEE*      SUNNY     25  18  75 SE8       30.29F WCI  16
WHEELING       MOSUNNY   25  17  72 S7        30.28F WCI  17
MORRIS*        SUNNY     26  21  81 SE12      30.26F WCI  15
ROMEOVILLE*    SUNNY     25  18  76 S8        30.26F WCI  16
NORTHERLY ISL    N/A     26  14  60 S8          N/A  WCI  18
$$

LMZ740>746-281600-
SOUTHERN LAKE MICHIGAN

STATION/POSITION SKY/WX   TEMP    WIND        PRES    VSBY  WAVE
                          AIR SEA DIR/SP/G                  HT/PER
                          (F)     (DEG/KT/KT) (MB)    (MI)  (FT/S)
WAUKEGAN HARBOR            27     190/ 13/ 16   N/A
HARRISON CRIB              25     170/ 18/ 20   N/A
BURNHAM HARBOR             26     180/  7/  9   N/A
CALUMET HARBOR             24     160/ 10/ 13   N/A
MICHIGAN CITY              24     140/ 10/ 13   N/A
$$

ILZ025>027-034>036-040-047-049-050-058-095>099-281600-
WEST-CENTRAL ILLINOIS

CITY           SKY/WX    TMP DP  RH WIND       PRES   REMARKS
QUINCY         SUNNY     31  26  82 SE16G24   30.14S HAZE    WCI  20
GALESBURG*     MOSUNNY   28  22  79 SE10      30.18F WCI  18
MACOMB*        SUNNY     29  26  89 SE16      30.20S WCI  17
JACKSONVILLE*  SUNNY     32  28  85 SE13G18   30.21S WCI  23
PITTSFIELD*    MOSUNNY   31  29  89 SE13      30.19S WCI  22
$$

ILZ028>032-037-038-041>044-048-051>054-059>061-281600-
CENTRAL ILLINOIS

CITY           SKY/WX    TMP DP  RH WIND       PRES   REMARKS
PONTIAC        SUNNY     28  23  80 SE12      30.26F WCI  18
BLOOMINGTON    SUNNY     27  19  71 S20       30.25F WCI  14
DECATUR        SUNNY     28  20  71 SE14      30.27F WCI  17
PEORIA         SUNNY     29  19  66 S14       30.23F WCI  18
LACON*         MOSUNNY   26  18  72 S12       30.24S WCI  16
LINCOLN*       SUNNY     29  23  78 SE14      30.27F WCI  19
SPRINGFIELD    MOSUNNY   30  24  78 SE14      30.24F WCI  19
TAYLORVILLE    SUNNY     30  27  86 SE15G22   30.25F WCI  19
$$

ILZ033-039-045-046-055>057-062-063-281600-
EAST-CENTRAL ILLINOIS

CITY           SKY/WX    TMP DP  RH WIND       PRES   REMARKS
CHAMPAIGN      MOSUNNY   26  19  74 SE14      30.28S WCI  14
DANVILLE*      SUNNY     25  19  78 S8        30.28S WCI  16
RANTOUL*       MOSUNNY   28  20  73 S12       30.28F WCI  18
MATTOON        FAIR      26  18  71 S12       30.29R WCI  16
PARIS*         SUNNY     26  21  80 SE10      30.32S WCI  17
$$

ILZ079-100>102-281600-
SOUTHWEST ILLINOIS

CITY           SKY/WX    TMP DP  RH WIND       PRES   REMARKS
ALTON          MOSUNNY   32  28  86 SE14      30.25S WCI  22
BELLEVILLE     SUNNY     32  31  98 SE13      30.26S WCI  22
CAHOKIA*       SUNNY     33  29  85 SE9       30.25S WCI  25
SPARTA*        SUNNY     30  27  90 SE10      30.28S WCI  21
$$

ILZ064>066-069>071-074>076-080>082-084>086-088>090-092>094-281600-
SOUTH-CENTRAL ILLINOIS

CITY           SKY/WX    TMP DP  RH WIND       PRES   REMARKS
CARBONDALE     SUNNY     32  27  81 SE6       30.30S WCI  26
CAIRO*         SUNNY     35  32  90 E8        30.31S WCI  28
EFFINGHAM*     SUNNY     31  22  70 E12       30.31F WCI  21
MARION         SUNNY     32  28  86 S12       30.31S WCI  23
MT. VERNON     SUNNY     30  25  80 SE9       30.30F WCI  22
CENTRALIA*     SUNNY     32  26  80 SE10      30.28F WCI  23
SALEM*         SUNNY     32  27  81 SE8       30.29F WCI  25
METROPOLIS*    SUNNY     33  33 100 E5        30.31R FOG     WCI  28
$$

ILZ067-068-072-073-078-083-087-091-281600-
SOUTHEAST ILLINOIS

CITY           SKY/WX    TMP DP  RH WIND       PRES   REMARKS
LAWRENCEVILLE  SUNNY     29  21  72 SE13      30.36R WCI  19
FLORA*         SUNNY     30  27  86 SE10      30.32S WCI  21
FAIRFIELD*     SUNNY     32  27  83 SE8       30.31S WCI  25
HARRISBURG*    SUNNY     32  31  95 SE5       30.33S FOG     WCI  28
ROBINSON*      SUNNY     27  21  77 SE8       30.35S WCI  19
CARMI*         SUNNY     34  31  90 E10       30.33S WCI  26
$$

ABBREVIATIONS USED IN REMARKS
   TC - TEMPERATURE IN CELSIUS
  WCI - WIND CHILL INDEX
   HX - HEAT INDEX
  VSB - VISIBILITY
$$




USA.gov is the U.S. government's official web portal to all federal, state and local government web resources and services.